Find Starlink 30608

NORAD ID: 58091 Int'l Des: 2023-160 Owner: SPXS Country: US Constellation: starlink operational
LEOCIRCULAR

現在のビュー

3D地球を読み込み中...

About Starlink 30608

Starlink 30608 (NORAD 58091) is a starlink constellation satellite (v2 mini) launched Oct 18, 2023 by SPXS of US. It operates in LEO, CIRCULAR orbit with a mass of 730.00 kg.

Starlink 30608について

説明を読み込み中...

次回通過

Passes for default location (London). Set your location on the main map for personalized predictions.

高度履歴

Loading altitude history...

軌道要素

1 58091U 23160S 26161.98837120 .00000874 00000-0 41279-4 0 9995
2 58091 43.0016 271.0711 0001312 261.5380 98.5323 15.27581428147218
Epoch: Jun 10, 2026 • Age: 21 hours

現在のステータス

高度 482.5 km
速度 7.63 km/s
衛星直下点 15.58°N, 80.03°E
打ち上げ日 Oct 18, 2023
運用期間 2.6 years
タイプ internet

技術仕様

分類 Payload
質量 730.00 kg
乾燥質量 700.00 kg
総質量 730.00 kg
長さ 0.30 m
直径 4.10 m
スパン 29.00 m
形状 Box + pan
製造者 SPXS
バスタイプ Starlink V2M
フェーズステータス In Orbit
所有者/国 SPXS/US

Most Searched